Location: Laterina
(43.5167°N, 11.7167°E)
Time: 15:16:14
(UTC+00:00)

Cosmos 1844 Rocket - Pass Details

Date: 24 September 2020
Orbit: 823 x 846 km, 71.0° (Epoch: 25 October)

Event Time Altitude Azimuth Distance (km) Brightness Sun altitude
Rises 17:54:23 0° 196° (SSW) 3,343 5.9 -9.5°
Reaches altitude 10° 17:56:48 10° 194° (SSW) 2,416 5.2 -10.0°
Maximum altitude 18:02:18 71° 112° (ESE) 875 2.6 -11.0°
Drops below altitude 10° 18:07:52 10° 29° (NNE) 2,443 4.9 -11.9°
Sets 18:10:19 0° 27° (NNE) 3,384 5.7 -12.4°
